Погода в Новопетровке

Россия / Амурская область     50°47′07″N   127°45′24″E
темп.,
°C
ветер,
м/с
пор.,
м/с
влажн.,
%
обл.,
%
осадки,
мм/ч
давл.,
гПа
погр.,
м
17 мая, пн
пн1700:00+12юз33470 0.0 99735
03:00+10з310535 0.0 997151
06:00+11зсз513575 0.0 998372
09:00+16сз68465 0.0 1000939
12:00+19сз57315 0.0 10002138
15:00+21сз482585 0.0 9993012
18:00+21ссв122690 0.0 9981336
21:00+13с6960100 1.0 1000287
18 мая, вт
вт1800:00+9ссв6981100 2.8 1000413
03:00+8в469375 11.8 998215
06:00+9вюв1188100 0.1 998272
09:00+11юз358397 0.1 998550
12:00+15зсз3666100 0.1 998981
15:00+18з483868 0.4 9992538
18:00+17юз134025 0.0 10001314
21:00+11с4103351 0.0 1003362
19 мая, ср
ср1900:00+8всв394565 0.0 1003195
03:00+7ссв2354100 0.0 100376
06:00+8вюв136398 0.0 1002126
09:00+12ссз34510 0.3 10031008
12:00+15ссз37355 0.0 10042480
15:00+17з382138 0.0 10043226
18:00+17з242161 0.0 10032679
21:00+11ююв333388 0.0 100444
20 мая, чт
чт2000:00+11юв51449100 0.0 1003411
03:00+11ююв71850100 0.0 999812
06:00+11вюв136593 0.8 1000149
09:00+15сз57552 0.8 1001842
12:00+17ссз564849 0.0 10041474
15:00+17с4444100 0.0 10051390
18:00+16ссв5548100 0.0 10061185
21:00+10св510735 0.0 1009443
21 мая, пт
пт2100:00+7св4983100 0.0 1009325
03:00+7ссв498078 0.0 1009310
06:00+7ссв4979100 0.0 1010300
09:00+13св58507 0.0 1008634
12:00+19в563030 0.0 10061041
15:00+21вюв453325 0.0 10031219
18:00+23юв24455 0.0 10001186
21:00+17всв22680 0.0 100014